| time (UTC) | temp C | wind direction | speed KPH | gust KPH | rain 1hr cm | rain 24hr cm | rain mn cm | humidity % | barometer mb |
| 20260509201512 | 32 | 151 | 0.0 | 0.0 | 0.00 | 0.00 | 0.00 | 64 | 1007.5 |
| 20260509201010 | 33 | 258 | 4.8 | 4.8 | 0.00 | 0.00 | 0.00 | 63 | 1007.3 |
| 20260509200504 | 33 | 164 | 0.0 | 0.0 | 0.00 | 0.00 | 0.00 | 64 | 1007.4 |
| 20260509200001 | 33 | 157 | 0.0 | 0.0 | 0.00 | 0.00 | 0.00 | 64 | 1007.5 |
| 20260509195456 | 33 | 206 | 4.8 | 8.0 | 0.00 | 0.00 | 0.00 | 63 | 1007.7 |
| 20260509194955 | 33 | 173 | 0.0 | 0.0 | 0.00 | 0.00 | 0.00 | 62 | 1007.7 |
| 20260509194451 | 32 | 166 | 0.0 | 0.0 | 0.00 | 0.00 | 0.00 | 64 | 1007.8 |
| 20260509193948 | 32 | 181 | 3.2 | 3.2 | 0.00 | 0.00 | 0.00 | 64 | 1007.7 |
| 20260509193443 | 31 | 165 | 0.0 | 0.0 | 0.00 | 0.00 | 0.00 | 68 | 1007.7 |
| 20260509192939 | 32 | 286 | 1.6 | 3.2 | 0.00 | 0.00 | 0.00 | 67 | 1007.6 |
| 20260509192436 | 32 | 263 | 4.8 | 8.0 | 0.00 | 0.00 | 0.00 | 66 | 1008.2 |
| 20260509191931 | 32 | 167 | 0.0 | 0.0 | 0.00 | 0.00 | 0.00 | 66 | 1007.9 |
| 20260509191426 | 30 | 198 | 0.0 | 0.0 | 0.00 | 0.00 | 0.00 | 72 | 1008.1 |
| 20260509190923 | 30 | 165 | 0.0 | 0.0 | 0.00 | 0.00 | 0.00 | 71 | 1008.0 |
| 20260509190420 | 30 | 189 | 0.0 | 1.6 | 0.00 | 0.00 | 0.00 | 73 | 1008.1 |
| 20260509185917 | 30 | 158 | 4.8 | 4.8 | 0.00 | 0.00 | 0.00 | 72 | 1008.2 |
| 20260509185415 | 31 | 160 | 0.0 | 1.6 | 0.00 | 0.00 | 0.00 | 71 | 1008.3 |
| 20260509184911 | 32 | 194 | 1.6 | 1.6 | 0.00 | 0.00 | 0.00 | 67 | 1008.4 |
| 20260509184408 | 31 | 150 | 0.0 | 0.0 | 0.00 | 0.00 | 0.00 | 71 | 1008.3 |
| 20260509183905 | 30 | 158 | 0.0 | 0.0 | 0.00 | 0.00 | 0.00 | 73 | 1008.6 |
| 20260509183359 | 31 | 124 | 0.0 | 0.0 | 0.00 | 0.00 | 0.00 | 70 | 1008.5 |
| 20260509182856 | 31 | 160 | 1.6 | 3.2 | 0.00 | 0.00 | 0.00 | 70 | 1008.7 |
| 20260509182353 | 31 | 182 | 3.2 | 3.2 | 0.00 | 0.00 | 0.00 | 71 | 1009.0 |
| 20260509181850 | 31 | 261 | 4.8 | 4.8 | 0.00 | 0.00 | 0.00 | 70 | 1008.7 |
| 20260509181347 | 31 | 199 | 1.6 | 4.8 | 0.00 | 0.00 | 0.00 | 71 | 1009.0 |
| 20260509180845 | 31 | 211 | 3.2 | 4.8 | 0.00 | 0.00 | 0.00 | 70 | 1009.0 |
| 20260509180340 | 30 | 257 | 4.8 | 4.8 | 0.00 | 0.00 | 0.00 | 72 | 1009.0 |
| 20260509175838 | 30 | 164 | 1.6 | 3.2 | 0.00 | 0.00 | 0.00 | 73 | 1009.2 |
| 20260509175334 | 30 | 262 | 4.8 | 4.8 | 0.00 | 0.00 | 0.00 | 72 | 1009.2 |
| 20260509174830 | 30 | 152 | 0.0 | 0.0 | 0.00 | 0.00 | 0.00 | 73 | 1009.1 |
| 20260509174326 | 30 | 156 | 4.8 | 8.0 | 0.00 | 0.00 | 0.00 | 73 | 1009.1 |
| 20260509173821 | 28 | 178 | 0.0 | 0.0 | 0.00 | 0.00 | 0.00 | 76 | 1009.1 |
| 20260509173317 | 29 | 157 | 0.0 | 0.0 | 0.00 | 0.00 | 0.00 | 75 | 1009.2 |
| 20260509172814 | 28 | 151 | 0.0 | 0.0 | 0.00 | 0.00 | 0.00 | 76 | 1009.2 |
| 20260509172311 | 28 | 154 | 0.0 | 0.0 | 0.00 | 0.00 | 0.00 | 77 | 1008.9 |
| 20260509171806 | 28 | 150 | 0.0 | 0.0 | 0.00 | 0.00 | 0.00 | 78 | 1008.9 |
| 20260509171302 | 28 | 168 | 4.8 | 4.8 | 0.00 | 0.00 | 0.00 | 77 | 1008.8 |
| 20260509170759 | 30 | 169 | 1.6 | 3.2 | 0.00 | 0.00 | 0.00 | 76 | 1009.1 |
| 20260509170255 | 30 | 142 | 0.0 | 1.6 | 0.00 | 0.00 | 0.00 | 75 | 1009.4 |
| 20260509165754 | 29 | 154 | 0.0 | 0.0 | 0.00 | 0.00 | 0.00 | 76 | 1009.4 |
| 20260509165249 | 28 | 164 | 3.2 | 3.2 | 0.00 | 0.00 | 0.00 | 76 | 1009.5 |
| 20260509164745 | 28 | 158 | 0.0 | 1.6 | 0.00 | 0.00 | 0.00 | 76 | 1009.2 |
| 20260509164241 | 28 | 150 | 0.0 | 1.6 | 0.00 | 0.00 | 0.00 | 77 | 1009.3 |
| 20260509163738 | 28 | 156 | 1.6 | 1.6 | 0.00 | 0.00 | 0.00 | 77 | 1009.3 |
| 20260509163235 | 28 | 150 | 0.0 | 1.6 | 0.00 | 0.00 | 0.00 | 77 | 1009.3 |
| 20260509162733 | 28 | 168 | 0.0 | 0.0 | 0.00 | 0.00 | 0.00 | 78 | 1009.5 |
| 20260509162227 | 27 | 169 | 0.0 | 0.0 | 0.00 | 0.00 | 0.00 | 80 | 1009.6 |
| 20260509161723 | 27 | 157 | 0.0 | 0.0 | 0.00 | 0.00 | 0.00 | 81 | 1009.6 |
| 20260509161220 | 27 | 198 | 1.6 | 1.6 | 0.00 | 0.00 | 0.00 | 80 | 1009.6 |
| 20260509160715 | 27 | 179 | 1.6 | 1.6 | 0.00 | 0.00 | 0.00 | 81 | 1009.9 |
| 20260509160212 | 27 | 139 | 1.6 | 1.6 | 0.00 | 0.00 | 0.00 | 82 | 1009.7 |
| 20260509155707 | 27 | 159 | 1.6 | 1.6 | 0.00 | 0.00 | 0.00 | 81 | 1009.8 |
| 20260509155203 | 27 | 162 | 1.6 | 1.6 | 0.00 | 0.00 | 0.00 | 82 | 1009.8 |
| 20260509154700 | 27 | 158 | 0.0 | 1.6 | 0.00 | 0.00 | 0.00 | 83 | 1009.8 |
| 20260509154157 | 26 | 157 | 1.6 | 3.2 | 0.00 | 0.00 | 0.00 | 85 | 1009.6 |
| 20260509153654 | 26 | 156 | 1.6 | 1.6 | 0.00 | 0.00 | 0.00 | 86 | 1009.6 |
| 20260509153150 | 25 | 165 | 1.6 | 1.6 | 0.00 | 0.00 | 0.00 | 87 | 1009.5 |
| 20260509152646 | 25 | 169 | 1.6 | 3.2 | 0.00 | 0.00 | 0.00 | 88 | 1009.4 |
| 20260509152143 | 25 | 142 | 1.6 | 1.6 | 0.00 | 0.00 | 0.00 | 88 | 1009.3 |
| 20260509151640 | 25 | 258 | 3.2 | 3.2 | 0.00 | 0.00 | 0.00 | 89 | 1009.4 |
| 20260509151137 | 25 | 157 | 1.6 | 1.6 | 0.00 | 0.00 | 0.00 | 90 | 1009.4 |
| 20260509150635 | 25 | 171 | 3.2 | 4.8 | 0.00 | 0.00 | 0.00 | 90 | 1009.3 |
| 20260509150133 | 25 | 144 | 0.0 | 0.0 | 0.00 | 0.00 | 0.00 | 91 | 1009.1 |
| 20260509145629 | 25 | 167 | 0.0 | 1.6 | 0.00 | 0.00 | 0.00 | 91 | 1009.4 |
| 20260509145124 | 24 | 161 | 0.0 | 0.0 | 0.00 | 0.00 | 0.00 | 92 | 1009.5 |
| 20260509144621 | 24 | 152 | 0.0 | 0.0 | 0.00 | 0.00 | 0.00 | 92 | 1009.5 |
| 20260509144118 | 24 | 195 | 0.0 | 0.0 | 0.00 | 0.00 | 0.00 | 92 | 1009.3 |
| 20260509143615 | 24 | 164 | 1.6 | 1.6 | 0.00 | 0.00 | 0.00 | 92 | 1009.1 |
| 20260509143113 | 24 | 161 | 0.0 | 0.0 | 0.00 | 0.00 | 0.00 | 93 | 1009.0 |
| 20260509142608 | 23 | 158 | 0.0 | 0.0 | 0.00 | 0.00 | 0.00 | 93 | 1008.9 |
| 20260509142104 | 23 | 153 | 0.0 | 0.0 | 0.00 | 0.00 | 0.00 | 93 | 1008.8 |
| 20260509141600 | 23 | 156 | 0.0 | 0.0 | 0.00 | 0.00 | 0.00 | 94 | 1008.9 |
| 20260509141057 | 23 | 136 | 0.0 | 0.0 | 0.00 | 0.00 | 0.00 | 94 | 1008.8 |
| 20260509140554 | 23 | 156 | 0.0 | 0.0 | 0.00 | 0.00 | 0.00 | 94 | 1009.0 |
| 20260509140052 | 23 | 152 | 1.6 | 1.6 | 0.00 | 0.00 | 0.00 | 94 | 1009.1 |
| 20260509135549 | 23 | 153 | 0.0 | 1.6 | 0.00 | 0.00 | 0.00 | 94 | 1009.3 |
| 20260509135047 | 23 | 156 | 0.0 | 0.0 | 0.00 | 0.00 | 0.00 | 94 | 1009.5 |
| 20260509134543 | 23 | 154 | 0.0 | 0.0 | 0.00 | 0.00 | 0.00 | 94 | 1009.3 |
| 20260509134041 | 23 | 150 | 0.0 | 0.0 | 0.00 | 0.00 | 0.00 | 94 | 1009.3 |
| 20260509133538 | 23 | 186 | 0.0 | 0.0 | 0.00 | 0.00 | 0.00 | 95 | 1009.2 |
| 20260509133035 | 23 | 128 | 0.0 | 0.0 | 0.00 | 0.00 | 0.00 | 95 | 1009.2 |
| 20260509132534 | 23 | 156 | 0.0 | 0.0 | 0.00 | 0.00 | 0.00 | 95 | 1009.2 |
| 20260509132032 | 23 | 161 | 0.0 | 0.0 | 0.00 | 0.00 | 0.00 | 95 | 1009.4 |
| 20260509131527 | 23 | 152 | 0.0 | 0.0 | 0.00 | 0.00 | 0.00 | 95 | 1009.4 |
| 20260509131024 | 23 | 149 | 0.0 | 0.0 | 0.00 | 0.00 | 0.00 | 95 | 1009.6 |
| 20260509130520 | 23 | 161 | 0.0 | 0.0 | 0.00 | 0.00 | 0.00 | 95 | 1009.4 |
| 20260509130017 | 23 | 147 | 0.0 | 0.0 | 0.00 | 0.00 | 0.00 | 95 | 1009.7 |
| 20260509125513 | 23 | 152 | 0.0 | 0.0 | 0.00 | 0.00 | 0.00 | 95 | 1009.5 |
| 20260509125010 | 23 | 153 | 0.0 | 0.0 | 0.00 | 0.00 | 0.00 | 95 | 1009.5 |
| 20260509124507 | 23 | 169 | 0.0 | 0.0 | 0.00 | 0.00 | 0.00 | 95 | 1009.6 |
| 20260509124004 | 23 | 158 | 0.0 | 0.0 | 0.00 | 0.00 | 0.00 | 95 | 1009.5 |
| 20260509123502 | 23 | 154 | 0.0 | 0.0 | 0.00 | 0.00 | 0.00 | 95 | 1009.7 |
| 20260509122957 | 23 | 154 | 0.0 | 0.0 | 0.00 | 0.00 | 0.00 | 95 | 1009.7 |
| 20260509122454 | 23 | 150 | 0.0 | 0.0 | 0.00 | 0.00 | 0.00 | 95 | 1009.5 |
| 20260509121951 | 23 | 158 | 0.0 | 0.0 | 0.00 | 0.00 | 0.00 | 95 | 1009.4 |
| 20260509121448 | 23 | 142 | 0.0 | 0.0 | 0.00 | 0.00 | 0.00 | 95 | 1009.6 |
| 20260509120946 | 23 | 176 | 0.0 | 0.0 | 0.00 | 0.00 | 0.00 | 95 | 1009.1 |
| 20260509120444 | 23 | 160 | 0.0 | 0.0 | 0.00 | 0.00 | 0.00 | 95 | 1008.9 |
| 20260509115942 | 23 | 155 | 0.0 | 0.0 | 0.00 | 0.00 | 0.00 | 95 | 1009.1 |
| 20260509115438 | 23 | 155 | 0.0 | 0.0 | 0.00 | 0.00 | 0.00 | 95 | 1009.2 |
| 20260509114936 | 23 | 155 | 0.0 | 0.0 | 0.00 | 0.00 | 0.00 | 95 | 1009.0 |
| 20260509114434 | 23 | 152 | 0.0 | 0.0 | 0.00 | 0.00 | 0.00 | 95 | 1009.0 |
| 20260509113933 | 22 | 155 | 0.0 | 0.0 | 0.00 | 0.00 | 0.00 | 95 | 1008.8 |
| 20260509113430 | 22 | 153 | 0.0 | 0.0 | 0.00 | 0.00 | 0.00 | 95 | 1008.9 |
| 20260509112927 | 22 | 156 | 0.0 | 0.0 | 0.00 | 0.00 | 0.00 | 95 | 1008.6 |
| 20260509112425 | 22 | 166 | 0.0 | 0.0 | 0.00 | 0.00 | 0.00 | 94 | 1008.5 |
| 20260509111921 | 22 | 155 | 0.0 | 0.0 | 0.00 | 0.00 | 0.00 | 95 | 1008.6 |
| 20260509111418 | 22 | 166 | 0.0 | 0.0 | 0.00 | 0.00 | 0.00 | 94 | 1008.8 |
| 20260509110916 | 22 | 160 | 0.0 | 0.0 | 0.00 | 0.00 | 0.00 | 94 | 1008.8 |
| 20260509110411 | 22 | 155 | 0.0 | 0.0 | 0.00 | 0.00 | 0.00 | 94 | 1008.6 |
| 20260509105910 | 22 | 158 | 0.0 | 0.0 | 0.00 | 0.00 | 0.00 | 94 | 1008.6 |
| 20260509105408 | 22 | 159 | 0.0 | 0.0 | 0.00 | 0.00 | 0.00 | 94 | 1008.4 |
| 20260509104905 | 22 | 153 | 0.0 | 0.0 | 0.00 | 0.00 | 0.00 | 94 | 1008.7 |
| 20260509104402 | 22 | 156 | 0.0 | 0.0 | 0.00 | 0.00 | 0.00 | 94 | 1008.6 |
| 20260509103859 | 22 | 156 | 0.0 | 0.0 | 0.00 | 0.00 | 0.00 | 94 | 1008.8 |
| 20260509103356 | 22 | 159 | 0.0 | 0.0 | 0.00 | 0.00 | 0.00 | 94 | 1008.9 |
| 20260509102855 | 22 | 161 | 0.0 | 0.0 | 0.00 | 0.00 | 0.00 | 94 | 1009.1 |
| 20260509102352 | 22 | 164 | 0.0 | 0.0 | 0.00 | 0.00 | 0.00 | 94 | 1008.9 |
| 20260509101847 | 22 | 148 | 0.0 | 0.0 | 0.00 | 0.00 | 0.00 | 94 | 1008.9 |
| 20260509101343 | 23 | 149 | 0.0 | 0.0 | 0.00 | 0.00 | 0.00 | 94 | 1008.7 |
| 20260509100842 | 23 | 151 | 0.0 | 0.0 | 0.00 | 0.00 | 0.00 | 94 | 1008.9 |
| 20260509100338 | 23 | 150 | 0.0 | 0.0 | 0.00 | 0.00 | 0.00 | 94 | 1008.9 |
| 20260509095835 | 23 | 152 | 0.0 | 0.0 | 0.00 | 0.00 | 0.00 | 94 | 1008.4 |
| 20260509095332 | 23 | 152 | 0.0 | 0.0 | 0.00 | 0.00 | 0.00 | 94 | 1008.5 |
| 20260509094830 | 23 | 152 | 0.0 | 0.0 | 0.00 | 0.00 | 0.00 | 94 | 1008.6 |
| 20260509094326 | 22 | 150 | 0.0 | 0.0 | 0.00 | 0.00 | 0.00 | 94 | 1008.5 |
| 20260509093824 | 22 | 157 | 0.0 | 0.0 | 0.00 | 0.00 | 0.00 | 94 | 1008.6 |
| 20260509093321 | 22 | 167 | 0.0 | 0.0 | 0.00 | 0.00 | 0.00 | 94 | 1008.6 |
| 20260509092819 | 23 | 154 | 0.0 | 0.0 | 0.00 | 0.00 | 0.00 | 94 | 1008.4 |
| 20260509092317 | 23 | 154 | 0.0 | 0.0 | 0.00 | 0.00 | 0.00 | 94 | 1008.6 |
| 20260509091815 | 22 | 172 | 0.0 | 0.0 | 0.00 | 0.00 | 0.00 | 94 | 1008.6 |
| 20260509091311 | 23 | 176 | 0.0 | 0.0 | 0.00 | 0.00 | 0.00 | 94 | 1008.8 |
| 20260509090809 | 22 | 169 | 0.0 | 0.0 | 0.00 | 0.00 | 0.00 | 94 | 1009.0 |
| 20260509090305 | 23 | 155 | 0.0 | 0.0 | 0.00 | 0.00 | 0.00 | 94 | 1009.1 |
| 20260509085803 | 23 | 152 | 0.0 | 0.0 | 0.00 | 0.00 | 0.00 | 94 | 1009.3 |
| 20260509085301 | 23 | 145 | 0.0 | 0.0 | 0.00 | 0.00 | 0.00 | 94 | 1008.9 |
| 20260509084757 | 23 | 153 | 0.0 | 0.0 | 0.00 | 0.00 | 0.00 | 94 | 1009.2 |
| 20260509084254 | 23 | 156 | 0.0 | 0.0 | 0.00 | 0.00 | 0.00 | 94 | 1008.8 |
| 20260509083752 | 23 | 153 | 0.0 | 0.0 | 0.00 | 0.00 | 0.00 | 94 | 1009.0 |
| 20260509083248 | 23 | 155 | 0.0 | 0.0 | 0.00 | 0.00 | 0.00 | 94 | 1008.8 |
| 20260509082744 | 22 | 157 | 0.0 | 0.0 | 0.00 | 0.00 | 0.00 | 94 | 1009.0 |
| 20260509082241 | 22 | 153 | 0.0 | 0.0 | 0.00 | 0.00 | 0.00 | 94 | 1008.8 |
| 20260509081738 | 23 | 153 | 0.0 | 0.0 | 0.00 | 0.00 | 0.00 | 94 | 1008.9 |
| 20260509081236 | 22 | 152 | 0.0 | 0.0 | 0.00 | 0.00 | 0.00 | 94 | 1009.2 |
| 20260509080734 | 22 | 155 | 0.0 | 0.0 | 0.00 | 0.00 | 0.00 | 94 | 1008.9 |
| 20260509080231 | 22 | 161 | 0.0 | 0.0 | 0.00 | 0.00 | 0.00 | 94 | 1009.3 |
| 20260509075729 | 22 | 154 | 0.0 | 0.0 | 0.00 | 0.00 | 0.00 | 94 | 1009.2 |
| 20260509075226 | 22 | 150 | 0.0 | 0.0 | 0.00 | 0.00 | 0.00 | 94 | 1009.3 |
| 20260509074723 | 22 | 148 | 0.0 | 0.0 | 0.00 | 0.00 | 0.00 | 94 | 1008.9 |
| 20260509074221 | 22 | 156 | 0.0 | 0.0 | 0.00 | 0.00 | 0.00 | 94 | 1009.0 |
| 20260509073717 | 22 | 135 | 0.0 | 0.0 | 0.00 | 0.00 | 0.00 | 94 | 1008.7 |
| 20260509073213 | 22 | 148 | 0.0 | 0.0 | 0.00 | 0.00 | 0.00 | 94 | 1008.9 |
| 20260509072710 | 22 | 151 | 0.0 | 0.0 | 0.00 | 0.00 | 0.00 | 94 | 1009.0 |
| 20260509072207 | 22 | 139 | 0.0 | 0.0 | 0.00 | 0.00 | 0.00 | 94 | 1008.9 |
| 20260509071703 | 22 | 157 | 0.0 | 0.0 | 0.00 | 0.00 | 0.00 | 94 | 1008.9 |
| 20260509071201 | 22 | 153 | 0.0 | 0.0 | 0.00 | 0.00 | 0.00 | 94 | 1008.7 |
| 20260509070658 | 22 | 159 | 0.0 | 0.0 | 0.00 | 0.00 | 0.00 | 94 | 1008.8 |
| 20260509070154 | 22 | 216 | 0.0 | 0.0 | 0.00 | 0.00 | 0.00 | 94 | 1008.9 |
| 20260509065650 | 22 | 151 | 0.0 | 0.0 | 0.00 | 0.00 | 0.00 | 94 | 1008.9 |
| 20260509065146 | 22 | 158 | 0.0 | 0.0 | 0.00 | 0.00 | 0.00 | 94 | 1008.9 |
| 20260509064643 | 22 | 155 | 0.0 | 0.0 | 0.00 | 0.00 | 0.00 | 94 | 1008.6 |
| 20260509064141 | 22 | 151 | 0.0 | 0.0 | 0.00 | 0.00 | 0.00 | 94 | 1008.7 |
| 20260509063638 | 22 | 143 | 0.0 | 1.6 | 0.00 | 0.00 | 0.00 | 94 | 1008.7 |
| 20260509063134 | 22 | 172 | 0.0 | 1.6 | 0.00 | 0.00 | 0.00 | 94 | 1008.5 |
| 20260509062632 | 22 | 143 | 0.0 | 1.6 | 0.00 | 0.00 | 0.00 | 94 | 1008.7 |
| 20260509062128 | 22 | 145 | 0.0 | 0.0 | 0.00 | 0.00 | 0.00 | 93 | 1008.7 |
| 20260509061625 | 22 | 183 | 4.8 | 4.8 | 0.00 | 0.00 | 0.00 | 93 | 1008.9 |
| 20260509061123 | 22 | 134 | 1.6 | 3.2 | 0.00 | 0.00 | 0.00 | 93 | 1009.1 |
| 20260509060621 | 22 | 221 | 0.0 | 0.0 | 0.00 | 0.00 | 0.00 | 93 | 1009.3 |
| 20260509060116 | 22 | 151 | 0.0 | 1.6 | 0.00 | 0.00 | 0.00 | 93 | 1008.9 |
| 20260509055612 | 22 | 124 | 1.6 | 4.8 | 0.00 | 0.00 | 0.00 | 93 | 1009.3 |
| 20260509055108 | 22 | 154 | 0.0 | 0.0 | 0.00 | 0.00 | 0.00 | 93 | 1009.3 |
| 20260509054605 | 22 | 170 | 0.0 | 0.0 | 0.00 | 0.00 | 0.00 | 93 | 1009.3 |
| 20260509054103 | 22 | 128 | 0.0 | 0.0 | 0.00 | 0.00 | 0.00 | 93 | 1009.4 |
| 20260509053601 | 22 | 151 | 0.0 | 0.0 | 0.00 | 0.00 | 0.00 | 93 | 1009.3 |
| 20260509053057 | 22 | 165 | 3.2 | 3.2 | 0.00 | 0.00 | 0.00 | 93 | 1009.4 |
| 20260509052555 | 22 | 150 | 0.0 | 1.6 | 0.00 | 0.00 | 0.00 | 93 | 1009.2 |
| 20260509052053 | 22 | 153 | 0.0 | 0.0 | 0.00 | 0.00 | 0.00 | 93 | 1009.1 |
| 20260509051551 | 22 | 163 | 0.0 | 0.0 | 0.00 | 0.00 | 0.00 | 93 | 1009.4 |
| 20260509051047 | 22 | 160 | 1.6 | 1.6 | 0.00 | 0.00 | 0.00 | 93 | 1009.5 |
| 20260509050544 | 22 | 145 | 0.0 | 0.0 | 0.00 | 0.00 | 0.00 | 93 | 1009.5 |
| 20260509050041 | 22 | 165 | 3.2 | 3.2 | 0.00 | 0.00 | 0.00 | 93 | 1009.6 |
| 20260509045538 | 22 | 148 | 4.8 | 4.8 | 0.00 | 0.00 | 0.00 | 93 | 1009.4 |
| 20260509045035 | 22 | 158 | 0.0 | 0.0 | 0.00 | 0.00 | 0.00 | 92 | 1009.5 |
| 20260509044533 | 22 | 136 | 0.0 | 0.0 | 0.00 | 0.00 | 0.00 | 92 | 1009.2 |
| 20260509044030 | 22 | 153 | 0.0 | 0.0 | 0.00 | 0.00 | 0.00 | 92 | 1009.3 |
| 20260509043526 | 22 | 171 | 1.6 | 1.6 | 0.00 | 0.00 | 0.00 | 92 | 1009.2 |
| 20260509043022 | 22 | 138 | 1.6 | 3.2 | 0.00 | 0.00 | 0.00 | 92 | 1009.2 |
| 20260509042518 | 22 | 148 | 0.0 | 0.0 | 0.00 | 0.00 | 0.00 | 92 | 1009.4 |
| 20260509042014 | 22 | 157 | 1.6 | 1.6 | 0.00 | 0.00 | 0.00 | 92 | 1009.5 |
| 20260509041511 | 22 | 149 | 0.0 | 0.0 | 0.00 | 0.00 | 0.00 | 92 | 1009.1 |
| 20260509041009 | 22 | 151 | 0.0 | 0.0 | 0.00 | 0.00 | 0.00 | 92 | 1009.1 |
| 20260509040507 | 22 | 156 | 0.0 | 0.0 | 0.00 | 0.00 | 0.00 | 92 | 1009.1 |
| 20260509040004 | 22 | 159 | 0.0 | 0.0 | 0.00 | 0.00 | 0.00 | 92 | 1009.2 |
| 20260509035501 | 22 | 155 | 0.0 | 0.0 | 0.00 | 0.00 | 0.00 | 92 | 1009.2 |
| 20260509034957 | 22 | 155 | 0.0 | 0.0 | 0.00 | 0.00 | 0.00 | 92 | 1009.4 |
| 20260509034455 | 22 | 149 | 0.0 | 0.0 | 0.00 | 0.00 | 0.00 | 92 | 1009.5 |
| 20260509033952 | 22 | 175 | 0.0 | 0.0 | 0.00 | 0.00 | 0.00 | 92 | 1009.3 |
| 20260509033448 | 22 | 133 | 0.0 | 0.0 | 0.00 | 0.00 | 0.00 | 92 | 1009.2 |
| 20260509032945 | 22 | 148 | 0.0 | 1.6 | 0.00 | 0.00 | 0.00 | 92 | 1009.2 |
| 20260509032443 | 22 | 143 | 0.0 | 0.0 | 0.00 | 0.00 | 0.00 | 91 | 1009.0 |
| 20260509031940 | 22 | 162 | 1.6 | 4.8 | 0.00 | 0.00 | 0.00 | 91 | 1008.7 |
| 20260509031438 | 22 | 160 | 0.0 | 0.0 | 0.00 | 0.00 | 0.00 | 91 | 1009.1 |
| 20260509030935 | 22 | 144 | 0.0 | 0.0 | 0.00 | 0.00 | 0.00 | 91 | 1008.6 |
| 20260509030433 | 22 | 158 | 0.0 | 0.0 | 0.00 | 0.00 | 0.00 | 91 | 1008.5 |
| 20260509025930 | 22 | 168 | 1.6 | 3.2 | 0.00 | 0.00 | 0.00 | 91 | 1008.3 |
| 20260509025425 | 22 | 139 | 0.0 | 0.0 | 0.00 | 0.00 | 0.00 | 91 | 1008.5 |
| 20260509024920 | 22 | 134 | 0.0 | 0.0 | 0.00 | 0.00 | 0.00 | 90 | 1008.2 |
| 20260509024417 | 22 | 150 | 0.0 | 1.6 | 0.00 | 0.00 | 0.00 | 90 | 1008.4 |
| 20260509023914 | 22 | 130 | 4.8 | 8.0 | 0.00 | 0.00 | 0.00 | 90 | 1008.6 |
| 20260509023411 | 22 | 147 | 0.0 | 0.0 | 0.00 | 0.00 | 0.00 | 89 | 1008.7 |
| 20260509022908 | 22 | 128 | 0.0 | 0.0 | 0.00 | 0.00 | 0.00 | 89 | 1008.2 |
| 20260509022405 | 22 | 154 | 0.0 | 1.6 | 0.00 | 0.00 | 0.00 | 89 | 1008.2 |
| 20260509021902 | 23 | 140 | 0.0 | 0.0 | 0.00 | 0.00 | 0.00 | 88 | 1008.4 |
| 20260509021359 | 23 | 96 | 1.6 | 1.6 | 0.00 | 0.00 | 0.00 | 88 | 1008.4 |
| 20260509020857 | 23 | 148 | 0.0 | 0.0 | 0.00 | 0.00 | 0.00 | 88 | 1008.5 |
| 20260509020355 | 23 | 148 | 1.6 | 3.2 | 0.00 | 0.00 | 0.00 | 88 | 1008.5 |
| 20260509015852 | 23 | 122 | 0.0 | 1.6 | 0.00 | 0.00 | 0.00 | 88 | 1008.4 |
| 20260509015350 | 23 | 113 | 0.0 | 0.0 | 0.00 | 0.00 | 0.00 | 88 | 1008.5 |
| 20260509014846 | 23 | 105 | 0.0 | 0.0 | 0.00 | 0.00 | 0.00 | 87 | 1008.2 |
| 20260509014343 | 23 | 143 | 0.0 | 0.0 | 0.00 | 0.00 | 0.00 | 87 | 1008.3 |
| 20260509013840 | 23 | 94 | 1.6 | 3.2 | 0.00 | 0.00 | 0.00 | 87 | 1008.5 |
| 20260509013336 | 23 | 158 | 0.0 | 0.0 | 0.00 | 0.00 | 0.00 | 87 | 1008.1 |
| 20260509012832 | 23 | 173 | 0.0 | 0.0 | 0.00 | 0.00 | 0.00 | 87 | 1008.0 |
| 20260509012329 | 23 | 161 | 0.0 | 0.0 | 0.00 | 0.00 | 0.00 | 87 | 1008.1 |
| 20260509011827 | 23 | 149 | 0.0 | 1.6 | 0.00 | 0.00 | 0.00 | 87 | 1008.1 |
| 20260509011324 | 23 | 149 | 0.0 | 1.6 | 0.00 | 0.00 | 0.00 | 86 | 1008.1 |
| 20260509010821 | 23 | 141 | 0.0 | 0.0 | 0.00 | 0.00 | 0.00 | 86 | 1007.7 |
| 20260509010318 | 23 | 148 | 0.0 | 0.0 | 0.00 | 0.00 | 0.00 | 86 | 1008.0 |
| 20260509005815 | 23 | 69 | 1.6 | 4.8 | 0.00 | 0.00 | 0.00 | 86 | 1007.9 |
| 20260509005313 | 23 | 146 | 0.0 | 0.0 | 0.00 | 0.00 | 0.00 | 86 | 1008.0 |
| 20260509004808 | 23 | 117 | 0.0 | 0.0 | 0.00 | 0.00 | 0.00 | 85 | 1007.9 |
| 20260509004304 | 23 | 76 | 6.4 | 8.0 | 0.00 | 0.00 | 0.00 | 85 | 1007.9 |
| 20260509003803 | 23 | 100 | 4.8 | 8.0 | 0.00 | 0.00 | 0.00 | 85 | 1008.1 |
| 20260509003300 | 23 | 155 | 0.0 | 0.0 | 0.00 | 0.00 | 0.00 | 85 | 1008.1 |
| 20260509002757 | 23 | 128 | 0.0 | 0.0 | 0.00 | 0.00 | 0.00 | 85 | 1008.2 |
| 20260509002254 | 23 | 119 | 0.0 | 0.0 | 0.00 | 0.00 | 0.00 | 85 | 1008.2 |
| 20260509001752 | 23 | 116 | 1.6 | 3.2 | 0.00 | 0.00 | 0.00 | 84 | 1008.2 |
| 20260509001247 | 23 | 154 | 0.0 | 0.0 | 0.00 | 0.00 | 0.00 | 84 | 1008.3 |
| 20260509000746 | 23 | 150 | 0.0 | 0.0 | 0.00 | 0.00 | 0.00 | 84 | 1008.0 |
| 20260509000242 | 24 | 122 | 0.0 | 0.0 | 0.00 | 0.00 | 0.00 | 84 | 1007.9 |
| 20260508235739 | 24 | 85 | 0.0 | 0.0 | 0.00 | 0.00 | 0.00 | 83 | 1008.2 |
| 20260508235236 | 24 | 113 | 0.0 | 0.0 | 0.00 | 0.00 | 0.00 | 83 | 1008.5 |
| 20260508234733 | 24 | 151 | 0.0 | 0.0 | 0.00 | 0.00 | 0.00 | 82 | 1008.4 |
| 20260508234229 | 24 | 135 | 3.2 | 8.0 | 0.00 | 0.00 | 0.00 | 82 | 1008.3 |
| 20260508233724 | 25 | 92 | 0.0 | 0.0 | 0.00 | 0.00 | 0.00 | 81 | 1008.2 |
| 20260508233221 | 25 | 153 | 0.0 | 1.6 | 0.00 | 0.00 | 0.00 | 81 | 1008.4 |
| 20260508232718 | 25 | 148 | 0.0 | 0.0 | 0.00 | 0.00 | 0.00 | 80 | 1008.3 |
| 20260508232215 | 25 | 175 | 0.0 | 1.6 | 0.00 | 0.00 | 0.00 | 80 | 1008.2 |
| 20260508231713 | 25 | 143 | 0.0 | 0.0 | 0.00 | 0.00 | 0.00 | 79 | 1008.2 |
| 20260508231209 | 25 | 157 | 0.0 | 0.0 | 0.00 | 0.00 | 0.00 | 79 | 1008.1 |
| 20260508230706 | 25 | 119 | 0.0 | 0.0 | 0.00 | 0.00 | 0.00 | 79 | 1008.2 |
| 20260508230202 | 25 | 108 | 0.0 | 0.0 | 0.00 | 0.00 | 0.00 | 80 | 1008.4 |
| 20260508225700 | 25 | 101 | 0.0 | 0.0 | 0.00 | 0.00 | 0.00 | 81 | 1008.2 |
| 20260508225156 | 25 | 83 | 0.0 | 0.0 | 0.00 | 0.00 | 0.00 | 81 | 1008.2 |
| 20260508224654 | 25 | 98 | 0.0 | 0.0 | 0.00 | 0.00 | 0.00 | 82 | 1008.2 |
| 20260508224151 | 25 | 69 | 4.8 | 4.8 | 0.00 | 0.00 | 0.00 | 82 | 1008.2 |
| 20260508223649 | 25 | 128 | 0.0 | 0.0 | 0.00 | 0.00 | 0.00 | 82 | 1008.1 |
| 20260508223146 | 25 | 149 | 0.0 | 0.0 | 0.00 | 0.00 | 0.00 | 82 | 1007.9 |
| 20260508222644 | 25 | 116 | 0.0 | 0.0 | 0.00 | 0.00 | 0.00 | 82 | 1008.2 |
| 20260508222141 | 25 | 143 | 0.0 | 0.0 | 0.00 | 0.00 | 0.00 | 82 | 1008.2 |
| 20260508221637 | 25 | 106 | 6.4 | 8.0 | 0.00 | 0.00 | 0.00 | 82 | 1008.2 |
| 20260508221132 | 25 | 183 | 0.0 | 0.0 | 0.00 | 0.00 | 0.00 | 82 | 1008.3 |
| 20260508220629 | 25 | 127 | 1.6 | 4.8 | 0.00 | 0.00 | 0.00 | 81 | 1008.4 |
| 20260508220126 | 25 | 91 | 1.6 | 3.2 | 0.00 | 0.00 | 0.00 | 81 | 1008.3 |
| 20260508215622 | 25 | 69 | 1.6 | 1.6 | 0.00 | 0.00 | 0.00 | 81 | 1008.3 |
| 20260508215119 | 25 | 111 | 0.0 | 0.0 | 0.00 | 0.00 | 0.00 | 81 | 1008.4 |
| 20260508214616 | 25 | 141 | 0.0 | 0.0 | 0.00 | 0.00 | 0.00 | 81 | 1008.2 |
| 20260508214113 | 25 | 66 | 0.0 | 3.2 | 0.00 | 0.00 | 0.00 | 81 | 1008.2 |
| 20260508213610 | 25 | 171 | 0.0 | 0.0 | 0.00 | 0.00 | 0.00 | 81 | 1008.5 |
| 20260508213106 | 25 | 155 | 0.0 | 0.0 | 0.00 | 0.00 | 0.00 | 81 | 1008.5 |
| 20260508212603 | 26 | 150 | 0.0 | 0.0 | 0.00 | 0.00 | 0.00 | 80 | 1008.5 |
| 20260508212059 | 26 | 153 | 0.0 | 0.0 | 0.00 | 0.00 | 0.00 | 80 | 1008.6 |
| 20260508211554 | 26 | 155 | 0.0 | 0.0 | 0.00 | 0.00 | 0.00 | 80 | 1008.4 |
| 20260508211051 | 26 | 100 | 1.6 | 3.2 | 0.00 | 0.00 | 0.00 | 79 | 1008.4 |
| 20260508210548 | 26 | 140 | 0.0 | 0.0 | 0.00 | 0.00 | 0.00 | 79 | 1008.3 |
| 20260508210045 | 26 | 108 | 0.0 | 0.0 | 0.00 | 0.00 | 0.00 | 78 | 1008.7 |
| 20260508205542 | 26 | 155 | 0.0 | 0.0 | 0.00 | 0.00 | 0.00 | 79 | 1008.5 |
| 20260508205039 | 26 | 156 | 0.0 | 0.0 | 0.00 | 0.00 | 0.00 | 79 | 1008.8 |
| 20260508204535 | 26 | 156 | 0.0 | 0.0 | 0.00 | 0.00 | 0.00 | 79 | 1008.6 |
| 20260508204031 | 26 | 154 | 0.0 | 0.0 | 0.00 | 0.00 | 0.00 | 80 | 1008.8 |
| 20260508203527 | 25 | 172 | 0.0 | 1.6 | 0.00 | 0.00 | 0.00 | 79 | 1008.7 |
| 20260508203024 | 26 | 171 | 0.0 | 0.0 | 0.00 | 0.00 | 0.00 | 79 | 1008.9 |
| 20260508202520 | 26 | 146 | 0.0 | 0.0 | 0.00 | 0.00 | 0.00 | 78 | 1009.1 |
| 20260508202017 | 27 | 182 | 1.6 | 1.6 | 0.00 | 0.00 | 0.00 | 76 | 1008.7 |